TJS-3 AKM (43917 NORAD) Tracking and Keplerian Element Data

This shows tracking and keplerian element data for the satellite.

Feedback or suggestion? Click here.




ElementValue
Catalog43917
NameTJS-3 AKM
Epoch Orbit1125
Epoch Day24.77060931
Epoch Year2022
RAAN115.1698
Inclination0.4898
Eccentricity0.0006011
Argument of Perigee7.4154
Mean Anonmoly310.9804
Mean Motion0.98352362
Decay Rate-5.1E-07
L11 43917U 18110C 22024.77060931 -.00000051 00000+0 00000+0 0 9993
L22 43917 0.4898 115.1698 0006011 7.4154 310.9804 0.98352362 11257



Live tracking and technical data element details for TJS-3 AKM (NORAD 43917). TJS-3 AKM can be tracked NOW for your location showing map with azimuth and elevation plus other details from your city location.







IsCatalogInMostPopularTable: catalog: 43917, numindb: 600
Update: records affected: 1



GetName: 43917 TJS-3 AKM

Hit Count: updated at: Tue, 03 Dec 2024 01:58:09 GMT